Location: Unspecified
(0.0000°N, 0.0000°E)
Time: 05:53:10
(UTC+00:00)

Hubble Space Telescope - Pass Details

Date: 28 November 2020
Orbit: 536 x 540 km, 28.5° (Epoch: 03 December)

Event Time Altitude Azimuth Distance (km) Brightness Sun altitude
Exits shadow 03:39:38 22° 71° (ENE) 1,208 2.9 -29.7°
Drops below altitude 10° 03:41:32 10° 92° (E) 1,782 4.2 -29.2°
Sets 03:43:59 0° 103° (ESE) 2,675 5.5 -28.7°
